Location: Les Salelles
(44.4192°N, 4.1044°E)
Time: 11:00:16
(UTC+00:00)

USA 267 - Pass Details

Date: 20 January 2021
Orbit: 1102 x 1106 km, 123.0° (Epoch: 22 February)

Event Time Altitude Azimuth Distance (km) Brightness Sun altitude
Exits shadow 19:51:36 65° 238° (WSW) 1,200 3.4 -34.5°
Drops below altitude 10° 19:57:03 10° 234° (SW) 2,956 6.0 -35.5°
Sets 19:59:31 0° 234° (SW) 3,912 6.7 -35.9°
